Location: Marysville Observatory
(48.1092°N, 122.1645°W)
Time: 12:53:29
(UTC-07:00)

ISS - Visible Passes

Search period start: 30 September 2014 00:00
Search period end: 10 October 2014 00:00
Orbit: 413 x 416 km, 51.6° (Epoch: 30 September)

Date Brightness Start Highest point End Pass type
(mag) Time Alt. Az. Time Alt. Az. Time Alt. Az.
30 Sep -1.4 04:57:35 23° SE 04:57:35 23° SE 04:59:02 10° SE visible
01 Oct -1.1 05:44:12 13° SSW 05:44:12 13° SSW 05:45:03 10° S visible
06 Oct -1.2 19:56:14 10° S 19:57:29 14° SSE 19:57:29 14° SSE visible
07 Oct -1.5 20:42:02 10° SW 20:43:38 25° SSW 20:43:38 25° SSW visible
08 Oct -2.4 19:53:05 10° SSW 19:56:06 32° SE 19:56:43 30° ESE visible
08 Oct 0.0 21:29:20 10° W 21:29:35 12° W 21:29:35 12° W visible
09 Oct -1.7 19:04:23 10° S 19:06:57 21° SE 19:09:32 10° E visible
09 Oct -2.4 20:39:59 10° WSW 20:42:30 48° WSW 20:42:30 48° WSW visible
